THOR AGENA B DEB, 2153

Orbit data source: Space-Track

THOR AGENA B DEB, 2153 is space debris in LEO originally from a launch on Mon, 29 Nov 1965 UTC launched from the Air Force Western Test Range (AFWTR). Debris objects in space refer to the collection of defunct objects orbiting the Earth. Examples of debris include non-operational satellites, rocket bodies, and fragments generated from explosions, collisions, or faulty payload assembly.

Loading next visibility...
Identifier
2153, 1965-098J
Orbit
LEO
Country
Flag of USUS
Related business
Manufacturer
Unknown
Mission
Spacecraft
Bus & Motor
Unknown
Mass
~1 kg wet, ~1 kg dry
Launch date (UTC)
1965-11-29 (60 years ago)
Launch vehicle
Unknown
Launch site
Air Force Western Test Range (AFWTR)
Object type
Payload
Rocket body
Debris
Shape & HBR
Unknown
Radar Cross Section
Small (<0.1 m²)

Expand to show TLE details & history
Last TLE update: 11 hours ago

TLE from 11 hours ago
0 THOR AGENA B DEB
1  2153U 65098J   25300.00239769  .00000780  00000-0  24369-3 0  9997
2  2153  79.7384 276.2391 1282480 167.9508 267.4597 12.38742003658157
Epoch: 2025-10-27T00:03Z
TLE epoch observation values (Epoch: 2025-10-27T00:03:27.160Z)
Latitude
59.46009°
Longitude
-102.45251°
Altitude
1,693.878 km
Speed
6.957 km/s
True Right ascension
19h 36m 05s
True Declination
59° 19' 37"
Sunlit
Object was in daylight at epoch
Visualization orbit readout
Latitude
Unknown
Longitude
Unknown
Altitude
Unknown
Speed
Unknown
Apparent Right ascension
Unknown
Apparent Declination
Unknown
Sunlit
N/A
Visualization observer readout
Local Sidereal Time
06:17:12
Azimuth
Unknown
Elevation
Unknown
Doppler factor
Unknown
Orbital elements
Apogee altitude
2,520.912 km
Perigee altitude
497.802 km
Semi-major axis
7,887.494 km
Eccentricity
0.12825
Inclination
79.7384°
RAAN
276.2391°
Arg. of periapsis
167.9508°
True anomaly
253.03529°
Mean anomaly
267.4597°
Eccentric anomaly
260.21845°
Mean motion
3.09838 °/min
Orbital period
116.19 mins
BSTAR
0.00024369
Loading maneuver chart data...
Computing Atmospheric mass density...
Loading historical data...
Loading historical data...
Loading historical data...
Loading historical data...
Loading historical data...
Loading historical data...
Loading historical data...

Documentation

Showing up to 5 results
|